This is the latest recevied weather packets stored in our database for station/object SQ6ELQ-11. If no packets are shown the sender has not sent any weather packets the latest 10 day(s).
| Time | Temp. | Humidity | Pressure | Rain* | Wind** | Luminosity | Snow |
|---|---|---|---|---|---|---|---|
| 1778028156 | 11.11° C | 66% | 1006.2 hPa | 0 mm | - | - | - |
| 1778026992 | 11.11° C | 66% | 1006.1 hPa | 0 mm | - | - | - |
| 1778025942 | 11.67° C | 68% | 1006.4 hPa | 0 mm | - | - | - |
| 1778024928 | 11.67° C | 66% | 1006.7 hPa | 0 mm | - | - | - |
| 1778023921 | 11.67° C | 66% | 1006.8 hPa | 0 mm | - | - | - |
| 1778022802 | 11.67° C | 67% | 1006.5 hPa | 0 mm | - | - | - |
| 1778021716 | 11.67° C | 66% | 1006.6 hPa | 0 mm | - | - | - |
| 1778020642 | 12.22° C | 66% | 1006.7 hPa | 0 mm | - | - | - |
| 1778019630 | 12.22° C | 66% | 1006.9 hPa | 0 mm | - | - | - |
| 1778018532 | 12.22° C | 65% | 1007.1 hPa | 0 mm | - | - | - |
| 1778017476 | 12.22° C | 63% | 1007.2 hPa | 0 mm | - | - | - |
| 1778016413 | 12.78° C | 63% | 1007.3 hPa | 0 mm | - | - | - |
| 1778015421 | 12.78° C | 64% | 1007.4 hPa | 0 mm | - | - | - |
| 1778014327 | 13.89° C | 62% | 1007.7 hPa | 0 mm | - | - | - |
| 1778013186 | 13.89° C | 61% | 1007.6 hPa | 0 mm | - | - | - |
| 1778012071 | 14.44° C | 59% | 1007.6 hPa | 0 mm | - | - | - |
| 1778011081 | 14.44° C | 59% | 1007.6 hPa | 0 mm | - | - | - |
| 1778009982 | 15° C | 59% | 1007.5 hPa | 0 mm | - | - | - |
| 1778008912 | 15° C | 58% | 1007.6 hPa | 0 mm | - | - | - |
| 1778007867 | 15° C | 57% | 1007.7 hPa | 0 mm | - | - | - |
| 1778006825 | 15.56° C | 57% | 1007.6 hPa | 0 mm | - | - | - |
| 1778005815 | 16.11° C | 54% | 1007.7 hPa | 0 mm | - | - | - |
| 1778004796 | 16.67° C | 53% | 1007.7 hPa | 0 mm | - | - | - |
| 1778003752 | 16.67° C | 52% | 1007.8 hPa | 0 mm | - | - | - |
| 1778002605 | 17.78° C | 52% | 1008 hPa | 0 mm | - | - | - |
* Rain latest hour (hover to see other rain measurements)
** Current wind speed in m/s (hover to see current wind gust speed)